TimeCST,TemperatureF,Dew PointF,Humidity,Sea Level PressureIn,VisibilityMPH,Wind Direction,Wind SpeedMPH,Gust SpeedMPH,PrecipitationIn,Events,Conditions,WindDirDegrees,DateUTC
12:15 AM,26.6,26.6,100,29.87,3.0,West,3.5,-,N/A,Snow,Light Snow,280,2012-12-29 06:15:00
12:35 AM,26.6,26.6,100,29.86,3.0,WNW,3.5,-,N/A,Snow,Light Snow,300,2012-12-29 06:35:00
12:55 AM,26.6,26.6,100,29.86,3.0,West,3.5,-,N/A,Snow,Light Snow,280,2012-12-29 06:55:00
1:15 AM,26.6,26.6,100,29.86,2.5,Calm,Calm,-,N/A,Snow,Light Snow,0,2012-12-29 07:15:00
1:35 AM,26.6,26.6,100,29.86,2.5,WNW,3.5,-,N/A,Snow,Light Snow,300,2012-12-29 07:35:00
1:55 AM,26.6,26.6,100,29.86,2.0,WNW,4.6,-,N/A,Snow,Light Snow,300,2012-12-29 07:55:00
2:15 AM,26.6,26.6,100,29.87,2.5,WNW,5.8,-,N/A,Snow,Light Snow,290,2012-12-29 08:15:00
2:35 AM,26.6,26.6,100,29.87,2.5,WNW,5.8,-,N/A,Snow,Light Snow,300,2012-12-29 08:35:00
2:55 AM,26.6,26.6,100,29.86,2.5,WNW,5.8,-,N/A,Snow,Light Snow,290,2012-12-29 08:55:00
3:15 AM,26.6,26.6,100,29.86,2.5,West,6.9,-,N/A,Snow,Light Snow,280,2012-12-29 09:15:00
3:35 AM,26.6,24.8,93,29.86,2.0,WNW,5.8,-,N/A,Snow,Light Snow,290,2012-12-29 09:35:00
3:55 AM,26.6,24.8,93,29.86,3.0,NW,8.1,-,N/A,Snow,Light Snow,310,2012-12-29 09:55:00
4:15 AM,24.8,23.0,93,29.86,4.0,WNW,9.2,-,N/A,Snow,Light Snow,300,2012-12-29 10:15:00
4:35 AM,24.8,23.0,93,29.86,4.0,WNW,9.2,-,N/A,Snow,Light Snow,300,2012-12-29 10:35:00
6:45 AM,21.2,21.2,100,29.89,2.0,West,12.7,-,N/A,Snow,Light Snow,280,2012-12-29 12:45:00
7:45 AM,21.2,21.2,100,29.90,2.0,WNW,12.7,-,N/A,Snow,Light Snow,290,2012-12-29 13:45:00
8:45 AM,21.2,21.2,100,29.90,1.0,WNW,12.7,-,N/A,Snow,Light Snow,300,2012-12-29 14:45:00
9:45 AM,23.0,21.2,93,29.92,2.0,WNW,11.5,-,N/A,Snow,Light Snow,300,2012-12-29 15:45:00
10:45 AM,23.0,21.2,93,29.93,4.0,WNW,12.7,-,N/A,,Overcast,290,2012-12-29 16:45:00
11:45 AM,23.0,21.2,93,29.90,5.0,WNW,13.8,-,N/A,,Overcast,290,2012-12-29 17:45:00
12:45 PM,24.8,21.2,86,29.93,7.0,WNW,15.0,-,N/A,,Overcast,290,2012-12-29 18:45:00
1:45 PM,23.0,21.2,93,29.95,10.0,WNW,13.8,-,N/A,,Overcast,300,2012-12-29 19:45:00
2:45 PM,23.0,21.2,93,29.97,5.0,WNW,15.0,-,N/A,,Haze,290,2012-12-29 20:45:00
3:45 PM,23.0,21.2,93,30.00,7.0,WNW,15.0,-,N/A,Snow,Light Snow,290,2012-12-29 21:45:00
6:45 PM,21.2,17.6,86,30.08,10.0,West,13.8,-,N/A,,Overcast,280,2012-12-30 00:45:00
8:15 PM,21.2,17.6,86,30.10,10.0,West,16.1,-,N/A,,Overcast,270,2012-12-30 02:15:00
8:35 PM,19.4,17.6,93,30.11,10.0,West,17.3,-,N/A,,Overcast,280,2012-12-30 02:35:00
8:45 PM,19.4,15.8,86,30.12,10.0,WNW,15.0,-,N/A,,Overcast,290,2012-12-30 02:45:00
8:55 PM,19.4,17.6,93,30.12,10.0,West,15.0,18.4,N/A,,Overcast,260,2012-12-30 02:55:00
9:15 PM,19.4,17.6,93,30.13,10.0,West,12.7,-,N/A,,Overcast,270,2012-12-30 03:15:00
9:35 PM,19.4,17.6,93,30.13,10.0,West,13.8,-,N/A,,Overcast,260,2012-12-30 03:35:00
9:55 PM,19.4,15.8,86,30.14,10.0,West,12.7,-,N/A,,Overcast,260,2012-12-30 03:55:00
10:15 PM,19.4,14.0,80,30.15,10.0,West,15.0,-,N/A,,Overcast,270,2012-12-30 04:15:00
10:35 PM,19.4,14.0,80,30.15,10.0,West,11.5,18.4,N/A,,Overcast,270,2012-12-30 04:35:00
10:55 PM,19.4,15.8,86,30.16,10.0,West,10.4,-,N/A,,Overcast,270,2012-12-30 04:55:00
11:15 PM,19.4,14.0,80,30.16,10.0,West,10.4,-,N/A,,Overcast,270,2012-12-30 05:15:00
11:35 PM,17.6,14.0,86,30.16,10.0,West,10.4,18.4,N/A,,Overcast,270,2012-12-30 05:35:00
11:55 PM,17.6,14.0,86,30.15,10.0,West,10.4,-,N/A,,Overcast,260,2012-12-30 05:55:00